Location: Arbon
(43.0005°N, 0.7472°E)
Time: 21:14:43
(UTC+00:00)

Altair - Pass Details

Date: 04 December 2020
Orbit: 1501 x 1682 km, 47.2° (Epoch: 26 January)

Event Time Altitude Azimuth Distance (km) Brightness Sun altitude
Rises 00:44:38 0° 294° (WNW) 4,656 - -66.1°
Reaches altitude 10° 00:47:41 10° 293° (WNW) 3,663 - -65.8°
Maximum altitude 00:56:47 70° 212° (SSW) 1,586 - -64.7°
Drops below altitude 10° 01:05:54 10° 131° (SE) 3,675 - -63.6°
Sets 01:08:58 0° 129° (SE) 4,672 - -63.2°
